• In Netherlands
  • List of Countries
  • For 7 days
  • Water Temperature
  • Satellite Maps
  • Weather Map
  • Weather Widgets
  • user-avatar
    Login

    Hourly Weather Chakhansur

    Today, 24 May, Wednesday

    Time Temperature Precipitation Wind Pressure Humidity
    00:00 +36°C° 0 mm 5 mps 714 mmHg 10%
    01:00 +35°C° 0 mm 5 mps 714 mmHg 11%
    02:00 +34°C° 0 mm 5 mps 714 mmHg 13%
    03:00 +34°C° 0 mm 4 mps 714 mmHg 14%
    04:00 +33°C° 0 mm 4 mps 714 mmHg 16%
    05:00 +34°C° 0 mm 5 mps 714 mmHg 16%
    06:00 +34°C° 0 mm 5 mps 715 mmHg 16%
    07:00 +35°C° 0 mm 5 mps 715 mmHg 15%
    08:00 +37°C° 0 mm 5 mps 715 mmHg 13%
    09:00 +40°C° 0 mm 5 mps 716 mmHg 10%
    10:00 +42°C° 0 mm 5 mps 716 mmHg 8%
    11:00 +43°C° 0 mm 5 mps 716 mmHg 7%
    12:00 +45°C° 0 mm 5 mps 715 mmHg 6%
    13:00 +46°C° 0 mm 5 mps 715 mmHg 6%
    14:00 +46°C° 0 mm 5 mps 714 mmHg 5%
    15:00 +46°C° 0 mm 5 mps 714 mmHg 5%
    16:00 +47°C° 0 mm 5 mps 714 mmHg 5%
    17:00 +46°C° 0 mm 5 mps 713 mmHg 5%
    18:00 +44°C° 0 mm 4 mps 713 mmHg 6%
    19:00 +43°C° 0 mm 3 mps 713 mmHg 6%
    20:00 +42°C° 0 mm 3 mps 713 mmHg 6%
    21:00 +40°C° 0 mm 2 mps 713 mmHg 6%
    22:00 +39°C° 0 mm 2 mps 713 mmHg 7%
    23:00 +38°C° 0 mm 2 mps 713 mmHg 7%

    Tomorrow, 25 May, Thursday

    Time Temperature Precipitation Wind Pressure Humidity
    00:00 +38°C° 0 mm 2 mps 713 mmHg 7%
    01:00 +37°C° 0 mm 3 mps 712 mmHg 7%
    02:00 +36°C° 0 mm 3 mps 712 mmHg 8%
    03:00 +36°C° 0 mm 3 mps 712 mmHg 9%
    04:00 +35°C° 0 mm 3 mps 712 mmHg 9%
    05:00 +36°C° 0 mm 3 mps 712 mmHg 9%
    06:00 +37°C° 0 mm 3 mps 713 mmHg 8%
    07:00 +38°C° 0 mm 3 mps 713 mmHg 8%
    08:00 +40°C° 0 mm 3 mps 714 mmHg 7%
    09:00 +43°C° 0 mm 3 mps 714 mmHg 6%
    10:00 +45°C° 0 mm 3 mps 714 mmHg 5%
    11:00 +45°C° 0 mm 3 mps 714 mmHg 5%
    12:00 +47°C° 0 mm 4 mps 713 mmHg 5%
    13:00 +48°C° 0 mm 4 mps 713 mmHg 5%
    14:00 +48°C° 0 mm 4 mps 713 mmHg 5%
    15:00 +49°C° 0 mm 4 mps 712 mmHg 5%
    16:00 +49°C° 0 mm 4 mps 712 mmHg 4%
    17:00 +47°C° 0 mm 3 mps 712 mmHg 5%
    18:00 +46°C° 0 mm 3 mps 712 mmHg 5%
    19:00 +43°C° 0 mm 2 mps 712 mmHg 5%
    20:00 +42°C° 0 mm 2 mps 712 mmHg 5%
    21:00 +42°C° 0 mm 2 mps 712 mmHg 6%
    22:00 +41°C° 0 mm 2 mps 713 mmHg 6%
    23:00 +40°C° 0 mm 2 mps 712 mmHg 6%

    Day after tomorrow, 26 May, Friday

    Time Temperature Precipitation Wind Pressure Humidity
    00:00 +39°C° 0 mm 3 mps 712 mmHg 7%
    01:00 +38°C° 0 mm 3 mps 712 mmHg 8%
    02:00 +38°C° 0 mm 4 mps 712 mmHg 8%
    03:00 +37°C° 0 mm 4 mps 712 mmHg 9%
    04:00 +36°C° 0 mm 4 mps 712 mmHg 9%
    05:00 +37°C° 0 mm 5 mps 712 mmHg 9%
    06:00 +38°C° 0 mm 6 mps 713 mmHg 8%
    07:00 +39°C° 0 mm 7 mps 713 mmHg 8%
    08:00 +41°C° 0 mm 7 mps 714 mmHg 8%
    09:00 +43°C° 0 mm 7 mps 714 mmHg 7%
    10:00 +45°C° 0 mm 7 mps 715 mmHg 7%
    11:00 +46°C° 0 mm 7 mps 714 mmHg 6%
    12:00 +47°C° 0 mm 7 mps 714 mmHg 6%
    13:00 +49°C° 0 mm 6 mps 714 mmHg 5%
    14:00 +50°C° 0 mm 7 mps 713 mmHg 5%
    15:00 +50°C° 0 mm 7 mps 713 mmHg 5%
    16:00 +50°C° 0 mm 7 mps 713 mmHg 5%
    17:00 +49°C° 0 mm 7 mps 713 mmHg 6%
    18:00 +47°C° 0 mm 7 mps 713 mmHg 6%
    19:00 +46°C° 0 mm 6 mps 713 mmHg 7%
    20:00 +45°C° 0 mm 7 mps 713 mmHg 8%
    21:00 +43°C° 0 mm 7 mps 713 mmHg 9%
    22:00 +41°C° 0 mm 7 mps 713 mmHg 10%
    23:00 +40°C° 0 mm 7 mps 713 mmHg 11%

    27 May, Saturday

    Time Temperature Precipitation Wind Pressure Humidity
    00:00 +39°C° 0 mm 8 mps 713 mmHg 13%
    01:00 +38°C° 0 mm 8 mps 712 mmHg 14%
    02:00 +37°C° 0 mm 8 mps 712 mmHg 15%
    03:00 +35°C° 0 mm 8 mps 712 mmHg 17%
    04:00 +34°C° 0 mm 8 mps 712 mmHg 18%
    05:00 +35°C° 0 mm 8 mps 713 mmHg 18%
    06:00 +35°C° 0 mm 8 mps 713 mmHg 19%
    07:00 +35°C° 0 mm 8 mps 714 mmHg 19%
    08:00 +38°C° 0 mm 8 mps 714 mmHg 16%
    09:00 +40°C° 0 mm 8 mps 714 mmHg 14%
    10:00 +43°C° 0 mm 7 mps 714 mmHg 11%
    11:00 +45°C° 0 mm 7 mps 714 mmHg 9%
    12:00 +46°C° 0 mm 7 mps 714 mmHg 7%
    13:00 +48°C° 0 mm 6 mps 713 mmHg 6%
    14:00 +48°C° 0 mm 6 mps 713 mmHg 5%
    15:00 +48°C° 0 mm 6 mps 712 mmHg 5%
    16:00 +49°C° 0 mm 6 mps 712 mmHg 5%
    17:00 +48°C° 0 mm 5 mps 712 mmHg 5%
    18:00 +45°C° 0 mm 4 mps 712 mmHg 5%
    19:00 +44°C° 0 mm 3 mps 712 mmHg 6%
    20:00 +43°C° 0 mm 3 mps 712 mmHg 6%
    21:00 +42°C° 0 mm 4 mps 712 mmHg 7%
    22:00 +41°C° 0 mm 4 mps 712 mmHg 7%
    23:00 +41°C° 0 mm 4 mps 712 mmHg 8%

    28 May, Sunday

    Time Temperature Precipitation Wind Pressure Humidity
    00:00 +40°C° 0 mm 4 mps 711 mmHg 8%
    01:00 +38°C° 0 mm 4 mps 711 mmHg 9%
    02:00 +37°C° 0 mm 4 mps 711 mmHg 10%
    03:00 +37°C° 0 mm 4 mps 711 mmHg 11%
    04:00 +36°C° 0 mm 4 mps 711 mmHg 11%
    05:00 +37°C° 0 mm 4 mps 711 mmHg 11%
    06:00 +37°C° 0 mm 5 mps 712 mmHg 11%
    07:00 +39°C° 0 mm 5 mps 712 mmHg 10%
    08:00 +41°C° 0 mm 5 mps 712 mmHg 9%
    09:00 +43°C° 0 mm 5 mps 713 mmHg 7%
    10:00 +47°C° 0 mm 5 mps 713 mmHg 6%
    11:00 +48°C° 0 mm 5 mps 712 mmHg 5%
    12:00 +49°C° 0 mm 5 mps 712 mmHg 5%
    13:00 +50°C° 0 mm 5 mps 712 mmHg 5%
    14:00 +50°C° 0 mm 5 mps 711 mmHg 5%
    15:00 +50°C° 0 mm 5 mps 711 mmHg 4%
    16:00 +50°C° 0 mm 5 mps 711 mmHg 4%
    17:00 +49°C° 0 mm 4 mps 711 mmHg 4%
    18:00 +46°C° 0 mm 2 mps 711 mmHg 5%
    19:00 +44°C° 0 mm 1 mps 711 mmHg 5%
    20:00 +43°C° 0 mm 2 mps 711 mmHg 5%
    21:00 +43°C° 0 mm 2 mps 711 mmHg 5%
    22:00 +42°C° 0 mm 2 mps 711 mmHg 6%
    23:00 +42°C° 0 mm 3 mps 711 mmHg 6%

    29 May, Monday

    Time Temperature Precipitation Wind Pressure Humidity
    00:00 +40°C° 0 mm 3 mps 711 mmHg 6%
    01:00 +39°C° 0 mm 3 mps 710 mmHg 7%
    02:00 +40°C° 0 mm 4 mps 710 mmHg 7%
    03:00 +38°C° 0 mm 4 mps 710 mmHg 8%
    04:00 +38°C° 0 mm 4 mps 710 mmHg 8%
    05:00 +39°C° 0 mm 5 mps 711 mmHg 9%
    06:00 +39°C° 0 mm 5 mps 712 mmHg 9%
    07:00 +40°C° 0 mm 6 mps 712 mmHg 10%
    08:00 +41°C° 0 mm 6 mps 712 mmHg 9%
    09:00 +44°C° 0 mm 6 mps 713 mmHg 9%
    10:00 +46°C° 0 mm 6 mps 713 mmHg 8%
    11:00 +47°C° 0 mm 6 mps 713 mmHg 7%
    12:00 +49°C° 0 mm 5 mps 712 mmHg 6%
    13:00 +50°C° 0 mm 5 mps 712 mmHg 5%
    14:00 +50°C° 0 mm 5 mps 712 mmHg 4%
    15:00 +51°C° 0 mm 6 mps 711 mmHg 4%
    16:00 +51°C° 0 mm 6 mps 711 mmHg 4%
    17:00 +49°C° 0 mm 5 mps 711 mmHg 4%
    18:00 +48°C° 0 mm 5 mps 711 mmHg 4%
    19:00 +47°C° 0 mm 4 mps 711 mmHg 5%
    20:00 +45°C° 0 mm 4 mps 711 mmHg 5%
    21:00 +44°C° 0 mm 4 mps 711 mmHg 5%
    22:00 +43°C° 0 mm 4 mps 711 mmHg 6%
    23:00 +42°C° 0 mm 5 mps 711 mmHg 7%
    Show more